Regional Weather Roundup
Issued by NWS

Home | Current Version | Previous Version | Graphics & Text | Print | Product List | Glossary On
Versions: 1 2 3 4 5 6 7 8 9 10 11 12 13 14 15 16 17 18 19 20 21 22 23 24 25 26 27 28 29 30 31 32 33 34 35 36 37 38 39 40 41 42 43 44 45 46 47 48 49 50
000
ASUS43 KDTX 292101
RWRMI
MICHIGAN HOURLY REGIONAL WEATHER ROUNDUP
NATIONAL WEATHER SERVICE DETROIT/PONTIAC MI
500 PM EDT FRI AUG 29 2014

NOTE: "FAIR" INDICATES FEW OR NO CLOUDS BELOW 12,000 FEET WITH NO
SIGNIFICANT WEATHER AND/OR OBSTRUCTION TO VISIBILITY.

MIZ047>049-052>055-059>063-066>070-074>076-081>083-292200-
SOUTHEAST LOWER MICHIGAN

CITY           SKY/WX    TMP DP  RH WIND       PRES   REMARKS
ADRIAN         MOSUNNY   83  63  50 VRB7      30.04F
ALMA           LGT RAIN  73  62  70 S6        30.01F
ANN ARBOR      MOSUNNY   77  61  57 SE8       30.05F
BAD AXE        CLOUDY    71  59  64 S10       30.06F
CARO           DRIZZLE   70  60  70 SE6       30.04F
DETROIT CITY   PTSUNNY   77  49  37 SE8       30.07F
DETROIT        PTSUNNY   76  58  53 E7        30.07F
FLINT          CLOUDY    75  54  47 SE13      30.04F
GROSSE ILE     SUNNY     73  61  64 SE6       30.06S
HILLSDALE      MOSUNNY   83  64  52 S7        30.04S
HOWELL         PTSUNNY   75  60  59 SE9       30.04F

CITY           SKY/WX    TMP DP  RH WIND       PRES   REMARKS
JACKSON        PTSUNNY   80  64  58 SE8       30.03F
LAMBERTVILLE   MOSUNNY   77  61  57 E8        30.05F
LANSING        PTSUNNY   77  64  64 SE10      30.03F
LAPEER         FAIR      73  56  55 S9        30.06F
MASON          PTSUNNY   74  64  72 SE6       30.03F
MONROE         SUNNY     75  61  60 SE10      30.04F
MT. CLEMENS    MOSUNNY   73  55  53 SE12      30.07F
PONTIAC        PTSUNNY   75  50  41 SE9       30.06F
PORT HOPE        N/A     71  61  70 SE9       30.04F
PORT HURON     PTSUNNY   73  55  53 S10       30.08F
TRI CITIES     CLOUDY    74  62  66 SE10      30.02F
TROY           PTSUNNY   78  46  32 SE3       30.08F
SAGINAW HB     CLOUDY    72  61  68 SE8       30.02F
$$
MIZ043>046-050>051-056>058-064>065-071>073-077>080-292200-
SOUTHWEST LOWER MICHIGAN

CITY           SKY/WX    TMP DP  RH WIND       PRES   REMARKS
BATTLE CREEK   CLOUDY    80  66  62 SE10      30.01F
BENTON HARBOR  PTSUNNY   82  71  69 SE10      29.96F
BIG RAPIDS     PTSUNNY   70  68  93 S10       29.97F
COLDWATER      MOSUNNY   82  66  58 SE7       30.01S
FREMONT        FAIR      74  67  78 S12G17    29.95F HAZE
HOLLAND        CLOUDY    76  71  85 SE12      29.96F
GRAND RAPIDS   LGT RAIN  71  71 100 SE8       29.99F
IONIA          MOCLDY    76  65  67 S10       29.99F
KALAMAZOO      PTSUNNY   80  67  64 SE5       30.00F
LUDINGTON      MOSUNNY   74  68  80 S9        29.92F
MARSHALL       PTSUNNY   79  65  63 SE6       30.00F
MOUNT PLEASANT CLOUDY    73  61  68 SE7       30.00F
MUSKEGON       PTSUNNY   76  67  73 SE12      29.95F
SOUTH HAVEN    CLOUDY    77  73  86 SE7       29.97F
$$
MIZ016>042-292200-
NORTHERN LOWER MICHIGAN

CITY           SKY/WX    TMP DP  RH WIND       PRES   REMARKS
ALPENA         PTSUNNY   69  62  78 S15       30.00F
BEAVER ISLAND  CLOUDY    69  66  90 E5        29.91S
BELLAIRE       PTSUNNY   78  64  61 S12G18    29.90F
CADILLAC       PTSUNNY   71  63  77 S12       29.97F
CHARLEVOIX     PTSUNNY   77  67  72 S10G16    29.92F
FRANKFORT      MOSUNNY   79  66  63 S10G18    29.89S
GAYLORD        PTSUNNY   71  62  73 S18G24    29.97F
GRAYLING       PTSUNNY   74  65  72 S10G17    29.99F
HARBOR SPRINGS PTSUNNY   74  65  74 S5        29.92S
HOUGHTON LAKE  CLOUDY    69  60  73 SE12G20   30.00F
MANISTEE       SUNNY     77  64  65 S8G18     29.92F
OSCODA         CLOUDY    68  62  81 SE6       30.02F
PELLSTON       CLOUDY    72  65  78 CALM      29.93F
TRAVERSE CITY  MOSUNNY   78  65  63 S8G20     29.89F
$$
MIZ007>008-015-292200-
EASTERN UPPER MICHIGAN

CITY           SKY/WX    TMP DP  RH WIND       PRES   REMARKS
KINROSS        CLOUDY    61  61 100 SE16      29.95F
MACKINAC ISLAN LGT RAIN  60  60 100 E10G16    29.93F
NEWBERRY       CLOUDY    60  60  98 SE12      29.91F FOG
S. S. MARIE    LGT RAIN  60  57  89 SE9       29.97F
$$
MIZ004>006-011>014-085-292200-
CENTRAL UPPER MICHIGAN

CITY           SKY/WX    TMP DP  RH WIND       PRES   REMARKS
MANISTIQUE     CLOUDY    63  63  98 SE7       29.88F
ESCANABA       CLOUDY    68  64  88 S6        29.86S
MENOMINEE      MOSUNNY   73  68  83 S10       29.83F
SAWYER-GWINN   CLOUDY    66  64  94 S14       29.84F FOG
$$
MIZ001>003-009>011-084-292200-
WESTERN UPPER MICHIGAN

CITY           SKY/WX    TMP DP  RH WIND       PRES   REMARKS
IRON MOUNTAIN  CLOUDY    69  65  86 S8        29.84F FOG
HOUGHTON       RAIN      65  62  90 CALM      29.80F FOG
COPPER HARBOR    N/A     63  59  87 CALM      29.80S
$$

ABBREVIATIONS USED IN REMARKS
   TC - TEMPERATURE IN CELSIUS
  WCI - WIND CHILL INDEX
   HX - HEAT INDEX
  VSB - VISIBILITY




USA.gov is the U.S. government's official web portal to all federal, state and local government web resources and services.